Regional Weather Roundup
Issued by NWS

Home | Current Version | Previous Version | Graphics & Text | Print | Product List | Glossary On
Versions: 1 2 3 4 5 6 7 8 9 10 11 12 13 14 15 16 17 18 19 20 21 22 23 24 25 26 27 28 29 30 31 32 33 34 35 36 37 38 39 40 41 42 43 44 45 46 47 48 49 50
119
ASUS44 KLIX 230210
RWRLA
LOUISIANA WEATHER ROUNDUP
NATIONAL WEATHER SERVICE NEW ORLEANS LA
800 PM CST SAT NOV 22 2014

NOTE: "FAIR" INDICATES FEW OR NO CLOUDS BELOW 12,000 FEET WITH NO
      SIGNIFICANT WEATHER AND/OR OBSTRUCTIONS TO VISIBILITY.
      SKY/WX - SKY CONDITION AND SIGNIFICANT WEATHER.
      TMP - AIR TEMPERATURE.    DP   - DEWPOINT TEMPERATURE.
      RH  - RELATIVE HUMIDITY.  PRES - PRESSURE.
      HX  - HEAT INDEX.         WCI  - WIND CHILL INDEX.

*  THESE STATIONS ARE NOT NWS OR FAA STATIONS AND ARE NOT UNDER
   NWS QUALITY CONTROL.

LAZ040-048-061>063-065-066-069-230300-
SOUTHEAST LOUISIANA

CITY           SKY/WX    TMP DP  RH WIND       PRES   REMARKS
N.O. AUDUBON     N/A     64  61  91 MISG        N/A
N.O. INTL ARPT CLOUDY    63  60  90 E12       29.99F
N.O. LAKEFRONT CLOUDY    62  59  90 E13       30.00F
N.O. DOWNTOWN* CLOUDY    63  57  82 E5        30.00F
SLIDELL        CLOUDY    65  61  87 E10       30.01F
BATON ROUGE    CLOUDY    64  59  83 E12       29.95F
BOOTHVILLE     CLOUDY    65  64  97 NE3       29.98F
BELLE CHASSE   CLOUDY    66  61  84 E13       29.99F
BOGALUSA*        N/A     64  57  80 E3        30.04S
NEW ROADS*     CLOUDY    64  59  83 E14G20    29.94F
GONZALES*      CLOUDY    62  62 100 E8        29.94F
HAMMOND*       CLOUDY    63  57  82 E7        30.02S
HOUMA*         CLOUDY    64  63  96 E10       29.96F
PORT FOURCHON* CLOUDY    68  64  88 E8        30.01S

$$

LAZ041-044-053-054-230300-
SOUTHWEST LOUISIANA

CITY           SKY/WX    TMP DP  RH WIND       PRES   REMARKS
LAKE CHARLES   CLOUDY    65  63  93 SE15      29.87F
LAFAYETTE      CLOUDY    66  61  84 VRB7      29.90F
PATTERSON      CLOUDY    66  63  88 E15G21    29.92F
SALT POINT       N/A     68  64  87 E9G20     29.89F
NEW IBERIA     CLOUDY    66  62  87 E14       29.91F
CHENAULT AIRPK LGT RAIN  64  64 100 SE12G18   29.88F

$$

LAZ027-028-230300-
CENTRAL LOUISIANA

CITY           SKY/WX    TMP DP  RH WIND       PRES   REMARKS
FORT POLK      LGT RAIN  63  61  94 E10       29.88S
ALEXANDRIA INT CLOUDY    65  59  81 SE15      29.89F
ALEXANDRIA     MOCLDY    64  58  80 SE12      29.91F

$$

LAZ001-002-230300-
NORTHWEST LOUISIANA

CITY           SKY/WX    TMP DP  RH WIND       PRES   REMARKS
SHREVEPORT     CLOUDY    65  58  78 SE7       29.87F
BARKSDALE AFB  CLOUDY    64  58  80 SE7       29.89S
DTN SHREVEPORT CLOUDY    64  57  78 SE8       29.88F

$$

LAZ014-016-230300-
NORTHEAST LOUISIANA

CITY           SKY/WX    TMP DP  RH WIND       PRES   REMARKS
MONROE         MOCLDY    64  57  78 SE7       29.95F
TALLULAH       CLOUDY    61  52  72 SE10      29.98F

$$




USA.gov is the U.S. government's official web portal to all federal, state and local government web resources and services.